| time (UTC) | temp F | wind direction | speed knots | gust knots | rain 1hr in | rain 24hr in | rain mn in | humidity % | barometer mb |
| 20260503050250 | 33 | 236 | 0.0 | 0.0 | 0.00 | 0.00 | 0.00 | 96 | 1014.1 |
| 20260503045748 | 34 | 236 | 0.0 | 0.0 | 0.00 | 0.00 | 0.00 | 95 | 1014.1 |
| 20260503045246 | 34 | 236 | 0.0 | 0.0 | 0.00 | 0.00 | 0.00 | 95 | 1014.1 |
| 20260503044742 | 34 | 236 | 0.0 | 0.0 | 0.00 | 0.00 | 0.00 | 95 | 1013.9 |
| 20260503044239 | 34 | 235 | 0.0 | 0.0 | 0.00 | 0.00 | 0.00 | 96 | 1014.2 |
| 20260503043736 | 34 | 237 | 0.0 | 0.0 | 0.00 | 0.00 | 0.00 | 96 | 1013.9 |
| 20260503043233 | 34 | 233 | 0.0 | 0.0 | 0.00 | 0.00 | 0.00 | 96 | 1014.0 |
| 20260503042729 | 34 | 237 | 0.0 | 0.0 | 0.00 | 0.00 | 0.00 | 97 | 1014.2 |
| 20260503042226 | 34 | 238 | 0.0 | 0.0 | 0.00 | 0.00 | 0.00 | 97 | 1014.0 |
| 20260503041722 | 34 | 233 | 0.0 | 0.0 | 0.00 | 0.00 | 0.00 | 97 | 1013.9 |
| 20260503041220 | 34 | 238 | 0.0 | 0.0 | 0.00 | 0.00 | 0.00 | 97 | 1014.2 |
| 20260503040717 | 34 | 238 | 0.0 | 0.0 | 0.00 | 0.00 | 0.00 | 96 | 1014.1 |
| 20260503040215 | 34 | 238 | 0.0 | 0.0 | 0.00 | 0.00 | 0.00 | 96 | 1014.0 |
| 20260503035712 | 34 | 238 | 0.0 | 0.0 | 0.00 | 0.00 | 0.00 | 96 | 1014.1 |
| 20260503035209 | 34 | 236 | 0.0 | 0.0 | 0.00 | 0.00 | 0.00 | 96 | 1014.1 |
| 20260503034706 | 34 | 236 | 0.0 | 0.0 | 0.00 | 0.00 | 0.00 | 96 | 1014.2 |
| 20260503034203 | 34 | 237 | 0.0 | 0.0 | 0.00 | 0.00 | 0.00 | 95 | 1014.1 |
| 20260503033700 | 34 | 237 | 0.0 | 0.0 | 0.00 | 0.00 | 0.00 | 95 | 1014.2 |
| 20260503033158 | 34 | 236 | 0.0 | 0.0 | 0.00 | 0.00 | 0.00 | 95 | 1014.3 |
| 20260503032656 | 34 | 236 | 0.0 | 0.0 | 0.00 | 0.00 | 0.00 | 95 | 1014.2 |
| 20260503032154 | 34 | 236 | 0.0 | 0.0 | 0.00 | 0.00 | 0.00 | 95 | 1014.3 |
| 20260503031651 | 34 | 236 | 0.0 | 0.0 | 0.00 | 0.00 | 0.00 | 95 | 1014.4 |
| 20260503031149 | 34 | 236 | 0.0 | 0.0 | 0.00 | 0.00 | 0.00 | 95 | 1014.3 |
| 20260503030645 | 34 | 237 | 0.0 | 0.0 | 0.00 | 0.00 | 0.00 | 95 | 1014.4 |
| 20260503030142 | 34 | 237 | 0.0 | 0.0 | 0.00 | 0.00 | 0.00 | 94 | 1014.3 |
| 20260503025638 | 34 | 238 | 0.0 | 0.0 | 0.00 | 0.00 | 0.00 | 94 | 1014.4 |
| 20260503025137 | 35 | 238 | 0.0 | 0.0 | 0.00 | 0.00 | 0.00 | 94 | 1014.5 |
| 20260503024632 | 35 | 238 | 0.0 | 0.0 | 0.00 | 0.00 | 0.00 | 93 | 1014.5 |
| 20260503024130 | 35 | 238 | 0.0 | 0.0 | 0.00 | 0.00 | 0.00 | 93 | 1014.3 |
| 20260503023627 | 36 | 238 | 0.0 | 0.0 | 0.00 | 0.00 | 0.00 | 92 | 1014.4 |
| 20260503023124 | 36 | 238 | 0.0 | 0.0 | 0.00 | 0.00 | 0.00 | 92 | 1014.3 |
| 20260503022620 | 36 | 240 | 0.0 | 0.0 | 0.00 | 0.00 | 0.00 | 92 | 1014.3 |
| 20260503022114 | 36 | 240 | 0.0 | 0.0 | 0.00 | 0.00 | 0.00 | 91 | 1014.5 |
| 20260503021612 | 37 | 240 | 0.0 | 0.0 | 0.00 | 0.00 | 0.00 | 91 | 1014.2 |
| 20260503021108 | 37 | 240 | 0.0 | 0.0 | 0.00 | 0.00 | 0.00 | 90 | 1014.3 |
| 20260503020605 | 38 | 240 | 0.0 | 0.0 | 0.00 | 0.00 | 0.00 | 89 | 1014.3 |
| 20260503015559 | 39 | 242 | 0.0 | 0.0 | 0.00 | 0.00 | 0.00 | 87 | 1014.3 |
| 20260503015056 | 39 | 242 | 0.0 | 0.0 | 0.00 | 0.00 | 0.00 | 86 | 1014.1 |
| 20260503014552 | 39 | 242 | 0.0 | 0.0 | 0.00 | 0.00 | 0.00 | 85 | 1014.1 |
| 20260503014050 | 40 | 242 | 0.0 | 0.0 | 0.00 | 0.00 | 0.00 | 84 | 1014.1 |
| 20260503013547 | 40 | 253 | 0.0 | 0.0 | 0.00 | 0.00 | 0.00 | 82 | 1014.2 |
| 20260503013045 | 40 | 253 | 0.0 | 0.0 | 0.00 | 0.00 | 0.00 | 80 | 1014.1 |
| 20260503012542 | 41 | 253 | 0.0 | 0.0 | 0.00 | 0.00 | 0.00 | 80 | 1014.0 |
| 20260503012038 | 41 | 253 | 0.0 | 0.0 | 0.00 | 0.00 | 0.00 | 77 | 1014.0 |
| 20260503011535 | 41 | 255 | 0.0 | 0.0 | 0.00 | 0.00 | 0.00 | 73 | 1013.9 |
| 20260503011032 | 41 | 254 | 0.0 | 0.9 | 0.00 | 0.00 | 0.00 | 73 | 1014.0 |
| 20260503010528 | 41 | 252 | 0.0 | 0.9 | 0.00 | 0.00 | 0.00 | 73 | 1013.9 |
| 20260503010026 | 41 | 252 | 0.0 | 0.0 | 0.00 | 0.00 | 0.00 | 73 | 1013.9 |
| 20260503005523 | 41 | 247 | 0.0 | 0.0 | 0.00 | 0.00 | 0.00 | 75 | 1013.8 |
| 20260503005020 | 41 | 242 | 0.0 | 0.0 | 0.00 | 0.00 | 0.00 | 76 | 1013.9 |
| 20260503004516 | 41 | 238 | 0.0 | 0.0 | 0.00 | 0.00 | 0.00 | 77 | 1014.0 |
| 20260503004015 | 42 | 259 | 0.0 | 0.0 | 0.00 | 0.00 | 0.00 | 74 | 1014.0 |
| 20260503003511 | 42 | 261 | 0.9 | 0.9 | 0.00 | 0.00 | 0.00 | 73 | 1013.9 |
| 20260503003009 | 42 | 274 | 1.7 | 1.7 | 0.00 | 0.00 | 0.00 | 72 | 1013.9 |
| 20260503002505 | 42 | 270 | 0.9 | 0.9 | 0.00 | 0.00 | 0.00 | 72 | 1013.9 |
| 20260503002001 | 42 | 271 | 0.9 | 0.9 | 0.00 | 0.00 | 0.00 | 72 | 1013.8 |
| 20260503001458 | 42 | 258 | 0.0 | 0.9 | 0.00 | 0.00 | 0.00 | 74 | 1013.8 |
| 20260503000955 | 42 | 279 | 0.9 | 1.7 | 0.00 | 0.00 | 0.00 | 73 | 1013.7 |
| 20260503000453 | 42 | 256 | 0.0 | 0.0 | 0.00 | 0.00 | 0.00 | 72 | 1013.8 |
| 20260502235950 | 42 | 262 | 0.0 | 0.0 | 0.00 | 0.00 | 0.00 | 72 | 1013.8 |
| 20260502235447 | 42 | 238 | 0.0 | 0.9 | 0.00 | 0.00 | 0.00 | 73 | 1013.7 |
| 20260502234944 | 42 | 257 | 0.9 | 0.9 | 0.00 | 0.00 | 0.00 | 70 | 1013.6 |
| 20260502234440 | 42 | 259 | 0.0 | 0.0 | 0.00 | 0.00 | 0.00 | 71 | 1013.7 |
| 20260502233938 | 42 | 265 | 0.9 | 0.9 | 0.00 | 0.00 | 0.00 | 71 | 1013.7 |
| 20260502233433 | 42 | 284 | 1.7 | 1.7 | 0.00 | 0.00 | 0.00 | 70 | 1013.7 |
| 20260502232930 | 42 | 266 | 0.9 | 0.9 | 0.00 | 0.00 | 0.00 | 70 | 1013.6 |
| 20260502232426 | 42 | 279 | 0.9 | 1.7 | 0.00 | 0.00 | 0.00 | 71 | 1013.7 |
| 20260502231923 | 42 | 281 | 0.9 | 1.7 | 0.00 | 0.00 | 0.00 | 69 | 1013.7 |
| 20260502231421 | 43 | 265 | 0.9 | 0.9 | 0.00 | 0.00 | 0.00 | 71 | 1013.6 |
| 20260502230919 | 43 | 259 | 0.0 | 0.0 | 0.00 | 0.00 | 0.00 | 72 | 1013.6 |
| 20260502230417 | 43 | 267 | 0.9 | 1.7 | 0.00 | 0.00 | 0.00 | 68 | 1013.7 |
| 20260502225915 | 43 | 290 | 1.7 | 1.7 | 0.00 | 0.00 | 0.00 | 69 | 1013.7 |
| 20260502225410 | 43 | 269 | 0.9 | 0.9 | 0.00 | 0.00 | 0.00 | 70 | 1013.7 |
| 20260502224907 | 43 | 297 | 0.9 | 1.7 | 0.00 | 0.00 | 0.00 | 69 | 1013.6 |
| 20260502224403 | 43 | 265 | 0.9 | 0.9 | 0.00 | 0.00 | 0.00 | 69 | 1013.9 |
| 20260502223900 | 43 | 109 | 0.9 | 1.7 | 0.00 | 0.00 | 0.00 | 67 | 1013.7 |
| 20260502223358 | 44 | 2 | 1.7 | 1.7 | 0.00 | 0.00 | 0.00 | 67 | 1013.7 |
| 20260502222856 | 44 | 288 | 0.9 | 1.7 | 0.00 | 0.00 | 0.00 | 67 | 1013.6 |
| 20260502222354 | 44 | 279 | 1.7 | 1.7 | 0.00 | 0.00 | 0.00 | 66 | 1013.5 |
| 20260502221849 | 44 | 287 | 1.7 | 1.7 | 0.00 | 0.00 | 0.00 | 67 | 1013.6 |
| 20260502221346 | 44 | 274 | 0.9 | 0.9 | 0.00 | 0.00 | 0.00 | 67 | 1013.5 |
| 20260502220843 | 44 | 4 | 2.6 | 2.6 | 0.00 | 0.00 | 0.00 | 67 | 1013.6 |
| 20260502220339 | 44 | 295 | 0.9 | 1.7 | 0.00 | 0.00 | 0.00 | 66 | 1013.6 |
| 20260502215835 | 44 | 276 | 0.9 | 0.9 | 0.00 | 0.00 | 0.00 | 66 | 1013.7 |
| 20260502215333 | 44 | 283 | 2.6 | 4.3 | 0.00 | 0.00 | 0.00 | 66 | 1013.3 |
| 20260502214829 | 44 | 270 | 0.9 | 0.9 | 0.00 | 0.00 | 0.00 | 69 | 1013.5 |
| 20260502214326 | 44 | 269 | 0.9 | 1.7 | 0.00 | 0.00 | 0.00 | 67 | 1013.6 |
| 20260502213824 | 44 | 311 | 0.9 | 1.7 | 0.00 | 0.00 | 0.00 | 71 | 1013.8 |
| 20260502213321 | 44 | 306 | 0.9 | 1.7 | 0.00 | 0.00 | 0.00 | 70 | 1013.5 |
| 20260502212820 | 44 | 318 | 2.6 | 2.6 | 0.00 | 0.00 | 0.00 | 69 | 1013.5 |
| 20260502212317 | 45 | 317 | 1.7 | 2.6 | 0.00 | 0.00 | 0.00 | 69 | 1013.3 |
| 20260502211815 | 44 | 308 | 2.6 | 2.6 | 0.00 | 0.00 | 0.00 | 72 | 1013.2 |
| 20260502211310 | 44 | 358 | 0.9 | 1.7 | 0.00 | 0.00 | 0.00 | 71 | 1013.2 |
| 20260502210808 | 45 | 318 | 0.9 | 0.9 | 0.00 | 0.00 | 0.00 | 70 | 1013.2 |
| 20260502210305 | 44 | 302 | 1.7 | 1.7 | 0.00 | 0.00 | 0.00 | 69 | 1013.2 |
| 20260502205802 | 44 | 303 | 3.5 | 4.3 | 0.00 | 0.00 | 0.00 | 65 | 1013.1 |
| 20260502205258 | 44 | 265 | 2.6 | 2.6 | 0.00 | 0.00 | 0.00 | 67 | 1013.0 |
| 20260502204755 | 44 | 321 | 1.7 | 1.7 | 0.00 | 0.00 | 0.00 | 67 | 1013.2 |
| 20260502204252 | 44 | 292 | 1.7 | 1.7 | 0.00 | 0.00 | 0.00 | 67 | 1013.1 |
| 20260502203749 | 45 | 303 | 4.3 | 5.2 | 0.00 | 0.00 | 0.00 | 65 | 1013.2 |
| 20260502203247 | 45 | 280 | 0.9 | 1.7 | 0.00 | 0.00 | 0.00 | 65 | 1013.2 |
| 20260502202742 | 45 | 310 | 2.6 | 2.6 | 0.00 | 0.00 | 0.00 | 63 | 1013.3 |
| 20260502202240 | 44 | 276 | 2.6 | 4.3 | 0.00 | 0.00 | 0.00 | 67 | 1013.2 |
| 20260502201738 | 44 | 276 | 2.6 | 2.6 | 0.00 | 0.00 | 0.00 | 66 | 1013.3 |
| 20260502201233 | 45 | 325 | 2.6 | 2.6 | 0.00 | 0.00 | 0.00 | 65 | 1013.2 |
| 20260502200730 | 45 | 304 | 2.6 | 2.6 | 0.00 | 0.00 | 0.00 | 69 | 1013.1 |
| 20260502200226 | 45 | 287 | 0.9 | 1.7 | 0.00 | 0.00 | 0.00 | 65 | 1013.5 |
| 20260502195725 | 46 | 317 | 4.3 | 5.2 | 0.00 | 0.00 | 0.00 | 65 | 1013.5 |
| 20260502195221 | 45 | 262 | 0.9 | 1.7 | 0.00 | 0.00 | 0.00 | 66 | 1013.3 |
| 20260502194717 | 46 | 312 | 2.6 | 2.6 | 0.00 | 0.00 | 0.00 | 66 | 1013.6 |
| 20260502194215 | 45 | 337 | 3.5 | 5.2 | 0.00 | 0.00 | 0.00 | 66 | 1013.5 |
| 20260502193710 | 46 | 323 | 3.5 | 4.3 | 0.00 | 0.00 | 0.00 | 67 | 1013.6 |
| 20260502193208 | 48 | 286 | 2.6 | 4.3 | 0.00 | 0.00 | 0.00 | 67 | 1013.5 |
| 20260502192703 | 45 | 297 | 2.6 | 2.6 | 0.00 | 0.00 | 0.00 | 68 | 1013.3 |
| 20260502192201 | 45 | 261 | 0.9 | 1.7 | 0.00 | 0.00 | 0.00 | 69 | 1013.3 |
| 20260502191657 | 45 | 279 | 1.7 | 2.6 | 0.00 | 0.00 | 0.00 | 71 | 1013.7 |
| 20260502191155 | 45 | 42 | 2.6 | 5.2 | 0.00 | 0.00 | 0.00 | 68 | 1013.6 |
| 20260502190652 | 45 | 309 | 1.7 | 1.7 | 0.00 | 0.00 | 0.00 | 69 | 1013.6 |
| 20260502190150 | 45 | 305 | 0.9 | 1.7 | 0.00 | 0.00 | 0.00 | 69 | 1013.7 |
| 20260502185644 | 44 | 319 | 1.7 | 1.7 | 0.00 | 0.00 | 0.00 | 71 | 1013.7 |
| 20260502185141 | 44 | 291 | 0.9 | 1.7 | 0.00 | 0.00 | 0.00 | 75 | 1013.8 |
| 20260502184637 | 44 | 280 | 0.9 | 0.9 | 0.00 | 0.00 | 0.00 | 73 | 1013.8 |
| 20260502184133 | 44 | 33 | 1.7 | 2.6 | 0.00 | 0.00 | 0.00 | 71 | 1013.8 |
| 20260502183630 | 44 | 289 | 1.7 | 1.7 | 0.00 | 0.00 | 0.00 | 65 | 1013.7 |
| 20260502183126 | 44 | 321 | 3.5 | 4.3 | 0.00 | 0.00 | 0.00 | 66 | 1013.7 |
| 20260502182621 | 43 | 298 | 2.6 | 2.6 | 0.00 | 0.00 | 0.00 | 66 | 1013.7 |
| 20260502182117 | 43 | 284 | 3.5 | 4.3 | 0.00 | 0.00 | 0.00 | 65 | 1013.8 |
| 20260502181615 | 43 | 323 | 2.6 | 2.6 | 0.00 | 0.00 | 0.00 | 68 | 1013.7 |
| 20260502181113 | 45 | 298 | 4.3 | 5.2 | 0.00 | 0.00 | 0.00 | 68 | 1013.8 |
| 20260502180610 | 47 | 270 | 0.9 | 0.9 | 0.00 | 0.00 | 0.00 | 63 | 1013.6 |
| 20260502180108 | 47 | 252 | 0.9 | 0.9 | 0.00 | 0.00 | 0.00 | 62 | 1013.7 |
| 20260502164013 | 44 | 306 | 1.7 | 1.7 | 0.00 | 0.00 | 0.00 | 67 | 1014.0 |
| 20260502163509 | 44 | 253 | 3.5 | 6.1 | 0.00 | 0.00 | 0.00 | 64 | 1014.0 |
| 20260502163006 | 44 | 275 | 2.6 | 2.6 | 0.00 | 0.00 | 0.00 | 66 | 1014.1 |
| 20260502162503 | 44 | 297 | 2.6 | 4.3 | 0.00 | 0.00 | 0.00 | 68 | 1014.0 |
| 20260502162000 | 43 | 302 | 1.7 | 1.7 | 0.00 | 0.00 | 0.00 | 71 | 1014.2 |
| 20260502161456 | 43 | 299 | 3.5 | 4.3 | 0.00 | 0.00 | 0.00 | 66 | 1014.1 |
| 20260502160955 | 44 | 325 | 3.5 | 4.3 | 0.00 | 0.00 | 0.00 | 70 | 1014.1 |
| 20260502160452 | 45 | 312 | 0.9 | 1.7 | 0.00 | 0.00 | 0.00 | 66 | 1014.1 |
| 20260502151941 | 44 | 294 | 2.6 | 2.6 | 0.00 | 0.00 | 0.00 | 72 | 1014.1 |
| 20260502151438 | 43 | 298 | 1.7 | 1.7 | 0.00 | 0.00 | 0.00 | 76 | 1014.1 |
| 20260502150935 | 44 | 298 | 5.2 | 7.0 | 0.00 | 0.00 | 0.00 | 72 | 1014.2 |
| 20260502150432 | 43 | 305 | 4.3 | 4.3 | 0.00 | 0.00 | 0.00 | 74 | 1014.1 |
| 20260502130318 | 38 | 279 | 2.6 | 2.6 | 0.00 | 0.00 | 0.00 | 83 | 1013.7 |
| 20260502123803 | 36 | 276 | 1.7 | 1.7 | 0.00 | 0.00 | 0.00 | 83 | 1013.5 |
| 20260502123300 | 36 | 294 | 3.5 | 4.3 | 0.00 | 0.00 | 0.00 | 84 | 1013.6 |
| 20260502122757 | 36 | 289 | 1.7 | 1.7 | 0.00 | 0.00 | 0.00 | 84 | 1013.5 |
| 20260502122253 | 36 | 333 | 1.7 | 2.6 | 0.00 | 0.00 | 0.00 | 85 | 1013.2 |
| 20260502121751 | 36 | 309 | 2.6 | 2.6 | 0.00 | 0.00 | 0.00 | 84 | 1013.2 |
| 20260502121249 | 36 | 313 | 2.6 | 2.6 | 0.00 | 0.00 | 0.00 | 84 | 1013.5 |
| 20260502120745 | 36 | 287 | 1.7 | 1.7 | 0.00 | 0.00 | 0.00 | 85 | 1013.2 |
| 20260502120242 | 35 | 313 | 1.7 | 1.7 | 0.00 | 0.00 | 0.00 | 83 | 1013.3 |
| 20260502115740 | 35 | 322 | 2.6 | 2.6 | 0.00 | 0.00 | 0.00 | 83 | 1013.2 |
| 20260502115237 | 35 | 331 | 1.7 | 1.7 | 0.00 | 0.00 | 0.00 | 84 | 1013.5 |
| 20260502114732 | 35 | 272 | 2.6 | 2.6 | 0.00 | 0.00 | 0.00 | 84 | 1013.3 |
| 20260502114230 | 35 | 302 | 2.6 | 2.6 | 0.00 | 0.00 | 0.00 | 84 | 1013.2 |
| 20260502113727 | 35 | 280 | 0.9 | 1.7 | 0.00 | 0.00 | 0.00 | 85 | 1013.3 |
| 20260502113224 | 35 | 265 | 2.6 | 2.6 | 0.00 | 0.00 | 0.00 | 85 | 1013.5 |
| 20260502112722 | 35 | 254 | 0.9 | 0.9 | 0.00 | 0.00 | 0.00 | 86 | 1013.2 |
| 20260502112220 | 34 | 280 | 0.9 | 1.7 | 0.00 | 0.00 | 0.00 | 87 | 1013.3 |
| 20260502111717 | 34 | 303 | 1.7 | 1.7 | 0.00 | 0.00 | 0.00 | 89 | 1013.5 |
| 20260502111214 | 34 | 255 | 0.0 | 0.0 | 0.00 | 0.00 | 0.00 | 89 | 1013.2 |
| 20260502110712 | 34 | 281 | 0.9 | 0.9 | 0.00 | 0.00 | 0.00 | 90 | 1013.2 |
| 20260502110209 | 34 | 252 | 0.9 | 0.9 | 0.00 | 0.00 | 0.00 | 90 | 1013.3 |
| 20260502105707 | 33 | 252 | 0.9 | 0.9 | 0.00 | 0.00 | 0.00 | 90 | 1013.1 |
| 20260502105203 | 33 | 256 | 0.0 | 0.9 | 0.00 | 0.00 | 0.00 | 90 | 1013.2 |
| 20260502104701 | 34 | 259 | 0.9 | 0.9 | 0.00 | 0.00 | 0.00 | 89 | 1013.1 |
| 20260502104158 | 34 | 251 | 0.0 | 0.0 | 0.00 | 0.00 | 0.00 | 89 | 1012.9 |
| 20260502103655 | 34 | 255 | 0.0 | 0.0 | 0.00 | 0.00 | 0.00 | 89 | 1013.2 |
| 20260502103153 | 34 | 259 | 0.9 | 0.9 | 0.00 | 0.00 | 0.00 | 88 | 1013.3 |
| 20260502102650 | 34 | 258 | 0.9 | 0.9 | 0.00 | 0.00 | 0.00 | 88 | 1013.0 |
| 20260502102147 | 34 | 257 | 0.9 | 0.9 | 0.00 | 0.00 | 0.00 | 88 | 1013.0 |
| 20260502101645 | 34 | 261 | 0.9 | 0.9 | 0.00 | 0.00 | 0.00 | 88 | 1013.2 |
| 20260502101143 | 34 | 271 | 1.7 | 1.7 | 0.00 | 0.00 | 0.00 | 88 | 1012.9 |
| 20260502100641 | 34 | 258 | 0.9 | 0.9 | 0.00 | 0.00 | 0.00 | 89 | 1013.2 |
| 20260502100139 | 34 | 265 | 0.9 | 0.9 | 0.00 | 0.00 | 0.00 | 88 | 1013.1 |
| 20260502091113 | 35 | 247 | 0.0 | 0.9 | 0.00 | 0.00 | 0.00 | 88 | 1013.0 |
| 20260502090610 | 35 | 249 | 0.0 | 0.0 | 0.00 | 0.00 | 0.00 | 87 | 1013.0 |
| 20260502090107 | 35 | 258 | 2.6 | 2.6 | 0.00 | 0.00 | 0.00 | 88 | 1012.9 |
| 20260502071504 | 37 | 252 | 0.0 | 0.9 | 0.00 | 0.00 | 0.00 | 88 | 1012.8 |
| 20260502071003 | 38 | 251 | 0.0 | 0.0 | 0.00 | 0.00 | 0.00 | 88 | 1012.9 |
| 20260502070500 | 38 | 272 | 1.7 | 1.7 | 0.00 | 0.00 | 0.00 | 88 | 1013.1 |
| 20260502065958 | 38 | 257 | 0.9 | 0.9 | 0.00 | 0.00 | 0.00 | 88 | 1012.9 |
| 20260502065456 | 38 | 262 | 1.7 | 1.7 | 0.00 | 0.00 | 0.00 | 88 | 1013.2 |
| 20260502064954 | 38 | 260 | 2.6 | 2.6 | 0.00 | 0.00 | 0.00 | 89 | 1013.2 |
| 20260502064452 | 38 | 261 | 1.7 | 2.6 | 0.00 | 0.00 | 0.00 | 92 | 1013.2 |
| 20260502063949 | 37 | 256 | 1.7 | 1.7 | 0.00 | 0.00 | 0.00 | 97 | 1013.1 |
| 20260502063447 | 37 | 269 | 1.7 | 1.7 | 0.00 | 0.00 | 0.00 | 99 | 1013.0 |
| 20260502062944 | 37 | 252 | 0.9 | 1.7 | 0.00 | 0.00 | 0.00 | 99 | 1013.0 |
| 20260502062441 | 37 | 222 | 0.9 | 1.7 | 0.00 | 0.00 | 0.00 | 99 | 1013.0 |
| 20260502061940 | 37 | 249 | 0.9 | 0.9 | 0.00 | 0.00 | 0.00 | 99 | 1013.1 |
| 20260502061437 | 37 | 270 | 0.9 | 0.9 | 0.00 | 0.00 | 0.00 | 99 | 1013.2 |
| 20260502060933 | 37 | 256 | 0.9 | 0.9 | 0.00 | 0.00 | 0.00 | 99 | 1013.3 |
| 20260502060428 | 37 | 242 | 0.9 | 0.9 | 0.00 | 0.00 | 0.00 | 99 | 1013.1 |
| 20260502055925 | 37 | 253 | 0.0 | 0.9 | 0.00 | 0.00 | 0.00 | 99 | 1013.2 |
| 20260502055424 | 37 | 248 | 0.0 | 0.9 | 0.00 | 0.00 | 0.00 | 99 | 1013.3 |
| 20260502054923 | 38 | 241 | 0.0 | 0.0 | 0.00 | 0.00 | 0.00 | 99 | 1013.2 |
| 20260502054420 | 38 | 228 | 0.0 | 0.0 | 0.00 | 0.00 | 0.00 | 99 | 1013.3 |
| 20260502053918 | 38 | 232 | 0.9 | 0.9 | 0.00 | 0.00 | 0.00 | 99 | 1013.3 |
| 20260502053415 | 38 | 252 | 0.9 | 0.9 | 0.00 | 0.00 | 0.00 | 99 | 1013.5 |
| 20260502052912 | 38 | 245 | 0.0 | 0.0 | 0.00 | 0.00 | 0.00 | 99 | 1013.6 |
| 20260502052411 | 38 | 242 | 0.0 | 0.0 | 0.00 | 0.00 | 0.00 | 99 | 1013.5 |
| 20260502051908 | 38 | 243 | 0.0 | 0.0 | 0.00 | 0.00 | 0.00 | 99 | 1013.3 |
| 20260502051406 | 38 | 242 | 0.0 | 0.0 | 0.00 | 0.00 | 0.00 | 99 | 1013.3 |
| 20260502050903 | 38 | 243 | 0.0 | 0.0 | 0.00 | 0.00 | 0.00 | 99 | 1013.5 |